Location: Castillon
(43.0896°N, 0.2156°E)
Time: 20:01:57
(UTC+00:00)

Cosmos 1025 Rocket - Pass Details

Date: 16 June 2021
Orbit: 593 x 619 km, 82.5° (Epoch: 31 July)

Event Time Altitude Azimuth Distance (km) Brightness Sun altitude
Exits shadow 21:09:57 20° 146° (SE) 1,448 4.3 -12.9°
Maximum altitude 21:12:26 36° 91° (E) 984 3.8 -13.2°
Drops below altitude 10° 21:16:26 10° 25° (NNE) 1,982 6.0 -13.6°
Sets 21:18:47 0° 17° (NNE) 2,888 7.0 -13.9°
